Powrót do katalogu

GEOSKAN-5

RS92S5

AktywnyNaukaSSO
NORAD 64891·PAYLOAD·🇷🇺 Russia
Ta nazwa satelity nie została jeszcze potwierdzona przez oficjalne źródła.

Wystrzelony Jul 25, 2025 z Vostochny Cosmodrome

Loading…

Następne Przeloty (najbliższe 24 godziny)

TLE

ŚwieżeSource: Space-Track

Epoka: Sep 14, 2026, 22:38 UTC

1 64891U 25155R   26257.94314733  .00015193  00000-0  44225-3 0  9991
2 64891  97.4652 228.3013 0004706 200.1121 159.9937 15.35501351 94584

Śledź GEOSKAN-5 w czasie rzeczywistym z AllMySat

Download on the App Store